CubeBel-2 (EU11S)
1 57175U 23091K   26175.25077841  .00012632  00000-0  44600-3 0  9996
2 57175  97.5052 238.5309 0011209  93.3026 266.9497 15.29305587165382
RS-38S
1 57189U 23091Z   26175.24800432  .00015134  00000-0  43036-3 0  9992
2 57189  97.5092 244.8751 0007801  56.2323 303.9663 15.36219101165777
SONATE-2
1 59112U 24043Q   26175.26319483  .00037305  00000-0  47564-3 0  9995
2 59112  97.5534 326.0961 0007286 172.1675 187.9696 15.59193494128997
GRBBeta
1 60237U 24128C   26175.18863118  .00002558  00000-0  18316-3 0  9994
2 60237  61.9881 191.7006 0039742 136.1475 224.2785 15.06673239107324
Curium One
1 60242U 24128H   26175.17766253  .00005488  00000-0  31995-3 0  9994
2 60242  61.9769 181.0139 0039100 131.8289 228.6156 15.12582390107512
ROBUSTA-3A
1 60243U 24128J   26175.14631881  .00003769  00000-0  22904-3 0  9990
2 60243  61.9847 183.6324 0040403 129.5028 230.9651 15.11729530107476
CatSat
1 60246U 24125J   26175.07182397  .00063948  00000-0  79694-3 0  9998
2 60246  97.2088  27.6657 0022441 155.4199 204.8133 15.59399365108469
HYPERVIEW-1G (RS66S)
1 61772U 24199AP  26175.23430535  .00142836  00000-0  84550-3 0  9993
2 61772  97.2862  55.3183 0005461 194.3108 165.8005 15.77659716135789
AO-123
1 61781U 24199AY  26175.26726105  .00006696  00000-0  19440-3 0  9996
2 61781  97.3000  43.8743 0011939 285.0984  74.8939 15.35762632135012
JINJUSat 1B
1 63210U 25052A   26175.19277766  .00015186  00000-0  46798-3 0  9990
2 63210  97.4001  71.9576 0005300  76.2271 283.9561 15.33693102 71176
NUSHSAT 1
1 63211U 25052B   26175.02970252  .00018662  00000-0  53041-3 0  9994
2 63211  97.3976  72.3835 0005109  80.3597 279.8224 15.36203028 71193
TEVEL2-4
1 63213U 25052D   26175.15869639  .00016841  00000-0  50050-3 0  9990
2 63213  97.3899  71.5621 0004948  90.1777 270.0033 15.34822563 71181
TEVEL2-5
1 63214U 25052E   26174.98437719  .00016638  00000-0  49735-3 0  9993
2 63214  97.3894  71.3335 0004880  91.6440 268.5362 15.34639902 71152
TEVEL2-6
1 63215U 25052F   26175.19247918  .00016897  00000-0  50551-3 0  9993
2 63215  97.3902  71.5263 0004712  91.8606 268.3176 15.34612208 71189
TEVEL2-1
1 63217U 25052H   26174.96304379  .00015378  00000-0  46842-3 0  9995
2 63217  97.3870  70.9129 0004942 100.4498 259.7302 15.34061026 71136
TEVEL2-3
1 63218U 25052J   26174.95743908  .00015464  00000-0  47017-3 0  9991
2 63218  97.3876  70.9298 0004852 100.9401 259.2388 15.34118051 71139
TEVEL2-2
1 63219U 25052K   26174.96331783  .00015328  00000-0  46676-3 0  9996
2 63219  97.3875  70.9156 0004967 100.9332 259.2469 15.34070494 71130
TEVEL2-9
1 63237U 25052AD  26175.21077817  .00014542  00000-0  47113-3 0  9994
2 63237  97.3939  70.5233 0008237 111.7825 248.4294 15.32082358 71107
TEVEL2-7
1 63238U 25052AE  26174.66511354  .00012446  00000-0  40771-3 0  9996
2 63238  97.3941  69.8919 0008290 113.4971 246.7143 15.31764216 71016
TEVEL2-8
1 63239U 25052AF  26175.19604222  .00014524  00000-0  47520-3 0  9991
2 63239  97.3938  70.3983 0008326 112.7098 247.5025 15.31766604 71092
SPIRONE
1 66657U 25274H   26175.08852025  .00002057  00000-0  20026-3 0  9998
2 66657  97.7480 104.2810 0012013 359.6233   0.4976 14.93569734 31259
K-HERO
1 66660U 25274L   26174.28747161  .00001913  00000-0  18462-3 0  9998
2 66660  97.7488 103.6569 0014071   5.3342 354.8026 14.93982761 31146
SNUGLITE-III DURI
1 66661U 25274M   26174.54299022  .00001613  00000-0  15630-3 0  9997
2 66661  97.7484 103.9296 0014654   5.2171 354.9199 14.94019114 31189
SAKHACUBE-CHOLBON
1 67290U 25313AU  26175.18144100  .00008004  00000-0  32335-3 0  9999
2 67290  97.3935 250.1293 0008176 339.1778  20.9126 15.24992892 27048
RS95S (QMR-KWT-2)
1 67291U 25313AV  26175.16317241  .00012366  00000-0  47663-3 0  9992
2 67291  97.3929 250.3011 0007605 336.0920  23.9964 15.26444539 27059
Ten-Koh2
1 68261U 25241B   26174.70466335  .00004001  00000-0  17675-3 0  9995
2 68261  51.6688 288.6110 0005581 160.8992 199.2196 15.23964299 15901
JACK-002
1 68417U 26067B   26175.14220559  .00005425  00000-0  25900-3 0  9991
2 68417  97.4563 133.6466 0000677 168.9989 191.1260 15.19465252 13005
DISCO 2
1 68431U 26067R   26174.63785580  .00006680  00000-0  32100-3 0  9994
2 68431  97.4595 133.1368 0002125  31.6445 328.4917 15.19154403 12922
HADES-SA (SpinnyONE)
1 68446U 26067AG  26175.13794182  .00016537  00000-0  78554-3 0  9999
2 68446  97.4407 133.3305 0009051  64.2263 295.9905 15.19264763 12980
PARUS-6U1
1 68456U 26067AS  26175.11191134  .00004975  00000-0  25086-3 0  9991
2 68456  97.4549 133.3687 0007073  53.4995 306.6889 15.17578800 12984
SAL-E
1 68458U 26067AU  26174.64473256  .00006167  00000-0  30785-3 0  9995
2 68458  97.4474 132.8409 0007610  62.2699 297.9306 15.17833271 12910
FSI-SAT 2
1 68792U 26088A   26175.12547340  .00003140  00000-0  21390-3 0  9999
2 68792  97.5073 324.2112 0015992  85.3718 274.9336 15.06882649  9336
OrigamiSat 2
1 68795U 26088D   26175.12573301  .00010016  00000-0  63748-3 0  9991
2 68795  97.5073 324.3681 0015922  59.3454 300.9342 15.08870979  9345
ARICA 2
1 68796U 26088E   26175.19295127  .00003162  00000-0  20627-3 0  9999
2 68796  97.5065 324.4190 0016860  58.4089 301.8783 15.08475098  9352
WASEDA-SAT-ZERO-II
1 68797U 26088F   26174.85600876  .00004487  00000-0  28923-3 0  9991
2 68797  97.5062 324.1007 0016564  59.1472 301.1383 15.08705173  9303
MANGARO-II-Piscus
1 68798U 26088G   26174.91220510  .00003138  00000-0  20257-3 0  9996
2 68798  97.5070 324.1864 0020171  60.9183 299.4062 15.08824043  9314
IO-86
1 40931U          25360.30710720  .00000000  00000-0  12800-3 0    00
2 40931   6.0006 332.5373 0012733 338.8432   8.1437 14.79075515    01
LILIUM-4                
1 71922C 26067AC  26089.50133053 -.00014632  00000+0 -74472-3 0    04
2 71922  97.4497  49.1617 0004341   5.9603 355.7042 15.16896692    16
